• In Slovakia
  • List of Countries
  • For 7 days
  • Water Temperature
  • Satellite Maps
  • Weather Map
  • Weather Widgets
  • user-avatar
    Login

    Hourly Weather Mayrhofen

    Today, 22 October, Monday

    Time Temperature Precipitation Wind Pressure Humidity
    00:00 -1°C° 0 mm 1 mps 619 mmHg 75%
    01:00 -1°C° 0 mm 1 mps 619 mmHg 71%
    02:00 -1°C° 0 mm 1 mps 619 mmHg 68%
    03:00 -1°C° 0 mm 1 mps 619 mmHg 65%
    04:00 -1°C° 0 mm 1 mps 619 mmHg 61%
    05:00 0°C° 0 mm 1 mps 619 mmHg 59%
    06:00 0°C° 0 mm 1 mps 619 mmHg 57%
    07:00 0°C° 0 mm 1 mps 619 mmHg 55%
    08:00 +3°C° 0 mm 1 mps 620 mmHg 47%
    09:00 +5°C° 0 mm 1 mps 621 mmHg 40%
    10:00 +7°C° 0 mm 2 mps 622 mmHg 33%
    11:00 +8°C° 0 mm 2 mps 622 mmHg 35%
    12:00 +9°C° 0 mm 2 mps 622 mmHg 36%
    13:00 +9°C° 0 mm 2 mps 622 mmHg 37%
    14:00 +8°C° 0 mm 2 mps 622 mmHg 43%
    15:00 +7°C° 0 mm 2 mps 622 mmHg 49%
    16:00 +6°C° 0 mm 2 mps 621 mmHg 55%
    17:00 +4°C° 0 mm 2 mps 621 mmHg 66%
    18:00 +2°C° 0 mm 2 mps 621 mmHg 76%
    19:00 -1°C° 0 mm 2 mps 621 mmHg 87%
    20:00 -1°C° 0 mm 2 mps 621 mmHg 88%
    21:00 -1°C° 0 mm 2 mps 621 mmHg 89%
    22:00 -2°C° 0 mm 2 mps 622 mmHg 90%
    23:00 -1°C° 0 mm 2 mps 622 mmHg 89%

    Tomorrow, 23 October, Tuesday

    Time Temperature Precipitation Wind Pressure Humidity
    00:00 -1°C° 0 mm 2 mps 622 mmHg 88%
    01:00 -1°C° 0 mm 2 mps 622 mmHg 86%
    02:00 -1°C° 0 mm 2 mps 622 mmHg 85%
    03:00 -1°C° 0 mm 2 mps 622 mmHg 84%
    04:00 -1°C° 0 mm 2 mps 621 mmHg 83%
    05:00 -2°C° 0 mm 2 mps 621 mmHg 84%
    06:00 -2°C° 0 mm 2 mps 621 mmHg 84%
    07:00 -2°C° 0 mm 2 mps 622 mmHg 84%
    08:00 +2°C° 0 mm 2 mps 622 mmHg 74%
    09:00 +4°C° 0 mm 2 mps 623 mmHg 63%
    10:00 +7°C° 0 mm 2 mps 624 mmHg 52%
    11:00 +8°C° 0 mm 2 mps 624 mmHg 48%
    12:00 +9°C° 0 mm 2 mps 624 mmHg 43%
    13:00 +10°C° 0 mm 3 mps 624 mmHg 39%
    14:00 +9°C° 0 mm 2 mps 623 mmHg 43%
    15:00 +8°C° 0 mm 2 mps 622 mmHg 47%
    16:00 +8°C° 0 mm 2 mps 622 mmHg 52%
    17:00 +6°C° 0 mm 2 mps 621 mmHg 59%
    18:00 +4°C° 0 mm 2 mps 621 mmHg 67%
    19:00 +2°C° 0 mm 2 mps 620 mmHg 75%
    20:00 +2°C° 0 mm 2 mps 620 mmHg 71%
    21:00 +2°C° 0 mm 2 mps 620 mmHg 67%
    22:00 +3°C° 0 mm 2 mps 621 mmHg 63%
    23:00 +3°C° 0 mm 2 mps 620 mmHg 60%

    Day after tomorrow, 24 October, Wednesday

    Time Temperature Precipitation Wind Pressure Humidity
    00:00 +3°C° 0 mm 2 mps 620 mmHg 58%
    01:00 +3°C° 0 mm 2 mps 620 mmHg 56%
    02:00 +2°C° 0 mm 3 mps 620 mmHg 58%
    03:00 +2°C° 0 mm 3 mps 619 mmHg 60%
    04:00 +2°C° 0 mm 3 mps 619 mmHg 63%
    05:00 +2°C° 0.3 mm 3 mps 619 mmHg 68%
    06:00 +2°C° 0.3 mm 3 mps 619 mmHg 74%
    07:00 +2°C° 0.3 mm 3 mps 619 mmHg 80%
    08:00 +2°C° 0.8 mm 3 mps 619 mmHg 81%
    09:00 +3°C° 0.8 mm 3 mps 619 mmHg 82%
    10:00 +4°C° 0.8 mm 3 mps 619 mmHg 83%
    11:00 +4°C° 0.8 mm 3 mps 619 mmHg 83%
    12:00 +5°C° 0.8 mm 4 mps 619 mmHg 82%
    13:00 +5°C° 0.8 mm 4 mps 619 mmHg 82%
    14:00 +5°C° 0.6 mm 4 mps 619 mmHg 84%
    15:00 +4°C° 0.6 mm 3 mps 619 mmHg 85%
    16:00 +4°C° 0.6 mm 3 mps 619 mmHg 87%
    17:00 +3°C° 0.4 mm 3 mps 619 mmHg 89%
    18:00 +3°C° 0.4 mm 3 mps 619 mmHg 92%
    19:00 +2°C° 0.4 mm 3 mps 619 mmHg 94%
    20:00 +2°C° 0.2 mm 3 mps 619 mmHg 94%
    21:00 +2°C° 0.2 mm 3 mps 620 mmHg 94%
    22:00 +3°C° 0.2 mm 2 mps 620 mmHg 95%
    23:00 +3°C° 0.1 mm 2 mps 620 mmHg 95%

    25 October, Thursday

    Time Temperature Precipitation Wind Pressure Humidity
    00:00 +3°C° 0.1 mm 2 mps 620 mmHg 95%
    01:00 +3°C° 0.1 mm 2 mps 620 mmHg 95%
    02:00 +2°C° 0 mm 2 mps 620 mmHg 95%
    03:00 +2°C° 0 mm 2 mps 619 mmHg 95%
    04:00 +2°C° 0 mm 2 mps 619 mmHg 95%
    05:00 +2°C° 0 mm 2 mps 619 mmHg 94%
    06:00 +2°C° 0 mm 1 mps 619 mmHg 94%
    07:00 +2°C° 0 mm 1 mps 619 mmHg 93%
    08:00 +4°C° 0 mm 1 mps 619 mmHg 83%
    09:00 +6°C° 0 mm 1 mps 620 mmHg 73%
    10:00 +8°C° 0 mm 1 mps 621 mmHg 63%
    11:00 +10°C° 0 mm 1 mps 621 mmHg 57%
    12:00 +11°C° 0 mm 1 mps 621 mmHg 51%
    13:00 +12°C° 0 mm 1 mps 621 mmHg 46%
    14:00 +11°C° 0 mm 1 mps 620 mmHg 52%
    15:00 +11°C° 0 mm 1 mps 620 mmHg 59%
    16:00 +10°C° 0 mm 1 mps 619 mmHg 65%
    17:00 +8°C° 0 mm 1 mps 618 mmHg 71%
    18:00 +5°C° 0 mm 1 mps 617 mmHg 78%
    19:00 +3°C° 0 mm 1 mps 616 mmHg 84%
    20:00 +3°C° 0 mm 1 mps 616 mmHg 83%
    21:00 +3°C° 0 mm 1 mps 616 mmHg 82%
    22:00 +3°C° 0 mm 1 mps 616 mmHg 82%
    23:00 +3°C° 0 mm 1 mps 616 mmHg 82%

    26 October, Friday

    Time Temperature Precipitation Wind Pressure Humidity
    00:00 +2°C° 0 mm 2 mps 616 mmHg 81%
    01:00 +2°C° 0 mm 2 mps 615 mmHg 81%
    02:00 +2°C° 0 mm 2 mps 615 mmHg 82%
    03:00 +2°C° 0 mm 2 mps 615 mmHg 83%
    04:00 +2°C° 0 mm 2 mps 614 mmHg 83%
    05:00 +2°C° 0 mm 2 mps 614 mmHg 84%
    06:00 +2°C° 0 mm 2 mps 614 mmHg 85%
    07:00 +2°C° 0 mm 2 mps 614 mmHg 85%
    08:00 +4°C° 0 mm 2 mps 614 mmHg 77%
    09:00 +6°C° 0 mm 2 mps 615 mmHg 69%
    10:00 +8°C° 0 mm 2 mps 615 mmHg 61%
    11:00 +9°C° 0 mm 2 mps 615 mmHg 58%
    12:00 +10°C° 0 mm 2 mps 615 mmHg 55%
    13:00 +12°C° 0 mm 2 mps 615 mmHg 52%
    14:00 +10°C° 0 mm 2 mps 614 mmHg 58%
    15:00 +9°C° 0 mm 2 mps 614 mmHg 65%
    16:00 +8°C° 0 mm 2 mps 613 mmHg 71%
    17:00 +7°C° 0 mm 2 mps 613 mmHg 78%
    18:00 +6°C° 0 mm 2 mps 612 mmHg 84%
    19:00 +4°C° 0 mm 2 mps 612 mmHg 91%
    20:00 +4°C° 0.1 mm 2 mps 611 mmHg 92%
    21:00 +4°C° 0.1 mm 2 mps 611 mmHg 92%
    22:00 +4°C° 0.1 mm 2 mps 611 mmHg 93%
    23:00 +4°C° 0.2 mm 2 mps 610 mmHg 93%

    27 October, Saturday

    Time Temperature Precipitation Wind Pressure Humidity
    00:00 +4°C° 0.2 mm 2 mps 609 mmHg 93%
    01:00 +4°C° 0.2 mm 2 mps 609 mmHg 93%
    02:00 +4°C° 0.4 mm 2 mps 608 mmHg 93%
    03:00 +4°C° 0.4 mm 2 mps 608 mmHg 93%
    04:00 +4°C° 0.4 mm 2 mps 607 mmHg 93%
    05:00 +4°C° 0.9 mm 2 mps 607 mmHg 94%
    06:00 +4°C° 0.9 mm 2 mps 606 mmHg 95%
    07:00 +4°C° 0.9 mm 2 mps 606 mmHg 95%
    08:00 +4°C° 2 mm 2 mps 606 mmHg 96%
    09:00 +4°C° 2 mm 2 mps 606 mmHg 96%
    10:00 +4°C° 2 mm 2 mps 606 mmHg 96%
    11:00 +3°C° 2.6 mm 2 mps 606 mmHg 96%
    12:00 +3°C° 2.6 mm 2 mps 606 mmHg 96%
    13:00 +2°C° 2.6 mm 2 mps 606 mmHg 96%
    14:00 +2°C° 2.8 mm 2 mps 606 mmHg 96%
    15:00 +1°C° 2.8 mm 2 mps 605 mmHg 96%
    16:00 -1°C° 2.8 mm 2 mps 605 mmHg 96%
    17:00 -1°C° 2.4 mm 2 mps 605 mmHg 97%
    18:00 -2°C° 2.4 mm 2 mps 605 mmHg 97%
    19:00 -2°C° 2.4 mm 2 mps 604 mmHg 97%
    20:00 -3°C° 1.9 mm 2 mps 604 mmHg 97%
    21:00 -3°C° 1.9 mm 2 mps 604 mmHg 97%
    22:00 -1°C° 1.9 mm 1 mps 604 mmHg 97%
    23:00 -1°C° 1 mm 1 mps 604 mmHg 97%

    28 October, Sunday

    Time Temperature Precipitation Wind Pressure Humidity
    00:00 -1°C° 1 mm 1 mps 604 mmHg 97%
    01:00 -1°C° 1 mm 1 mps 603 mmHg 97%
    02:00 -1°C° 1 mm 1 mps 603 mmHg 97%
    03:00 -1°C° 1 mm 1 mps 603 mmHg 97%
    04:00 0°C° 1 mm 1 mps 603 mmHg 97%
    05:00 -2°C° 0.4 mm 2 mps 603 mmHg 97%
    06:00 -2°C° 0.4 mm 2 mps 603 mmHg 97%
    07:00 -2°C° 0.4 mm 2 mps 603 mmHg 98%
    08:00 -1°C° 0.2 mm 3 mps 604 mmHg 97%
    09:00 -1°C° 0.2 mm 3 mps 604 mmHg 96%
    10:00 0°C° 0.2 mm 3 mps 605 mmHg 96%
    11:00 0°C° 0.3 mm 3 mps 605 mmHg 95%
    12:00 0°C° 0.3 mm 3 mps 606 mmHg 93%
    13:00 0°C° 0.3 mm 3 mps 606 mmHg 92%
    14:00 0°C° 0.3 mm 3 mps 606 mmHg 92%
    15:00 -1°C° 0.3 mm 2 mps 607 mmHg 91%
    16:00 -1°C° 0.3 mm 2 mps 607 mmHg 91%
    17:00 -2°C° 0.3 mm 2 mps 607 mmHg 92%
    18:00 -3°C° 0.3 mm 2 mps 608 mmHg 94%
    19:00 -3°C° 0.3 mm 1 mps 608 mmHg 95%
    20:00 -3°C° 0.2 mm 1 mps 608 mmHg 95%
    21:00 -3°C° 0.2 mm 1 mps 608 mmHg 95%
    22:00 -4°C° 0.2 mm 1 mps 609 mmHg 95%
    23:00 -4°C° 0.1 mm 1 mps 609 mmHg 94%
    Show more